This demonstration page uses our WeatherBlox Daily Observations layout. Learn more.

Left ArrowRight Arrow

39.95238, -75.16362

Hourly Observations for May 17, 2018

Temp ( °F °C ) Dew Point ( °F °C ) Humidity (%) Winds ( mph kmh ) Pressure ( in mb ) Visibility ( mi km ) Precip ( " mm )
12:54 am 00:54 Cloudy with Mist and Fog 58 14.4 57 13.9 97 97 NE 12 19 30.00 1016 5 8 0.00 0.03
1:50 am 01:50 Cloudy with Light Rain 57 14 57 14 100 100 NE 8 13 29.97 1015 4 6 0.02 0.51
1:54 am 01:54 Cloudy with Light Rain 58 14.4 57 13.9 97 97 NE 10 17 29.97 1015 4 6 0.03 0.76
2:46 am 02:46 Cloudy with Heavy Rain 57 13.9 57 13.9 100 100 NE 13 20 29.97 1015 3 5 0.13 3.30
2:54 am 02:54 Cloudy with Rain 57 13.9 57 13.9 100 100 NE 7 11 29.97 1015 3 5 0.20 5.08
3:08 am 03:08 Cloudy with Light Rain 58 14.4 57 13.9 97 97 ENE 8 13 29.97 1015 5 8 0.02 0.51
3:17 am 03:17 Cloudy with Light Rain 58 14.4 57 13.9 97 97 NNE 5 7 29.97 1015 6 10 0.02 0.51
3:42 am 03:42 Cloudy with Light Rain 58 14.4 57 13.9 97 97 Calm 29.97 1015 4 6 0.03 0.76
3:54 am 03:54 Cloudy with Light Rain 58 14.4 56 13.3 93 93 Calm 29.98 1015 4 6 0.04 1.02
4:01 am 04:01 Cloudy with Light Rain 58 14.4 56 13.3 93 93 NW 7 11 29.97 1015 4 6 0.00 0.03
4:15 am 04:15 Cloudy with Mist and Fog 58 14.4 57 13.9 97 97 NNW 7 11 29.97 1015 4 6 0.01 0.25
4:42 am 04:42 Cloudy with Light Rain 58 14.4 57 13.9 97 97 N 6 9 29.97 1015 4 6 0.02 0.51
4:54 am 04:54 Cloudy with Mist and Fog 58 14.4 57 13.9 97 97 N 7 11 29.97 1015 4 6 0.02 0.51
5:42 am 05:42 Cloudy 58 14.4 57 13.9 97 97 NE 3 6 29.97 1015 7 11 0.00 0.00
5:47 am 05:47 Cloudy with Light Rain 58 14.4 57 13.9 97 97 NE 3 6 29.97 1015 8 13 0.00 0.03
5:54 am 05:54 Cloudy with Light Rain 58 14.4 57 13.9 97 97 NE 3 6 29.97 1015 9 14 0.00 0.03
6:07 am 06:07 Cloudy 58 14.4 57 13.9 97 97 E 6 9 29.97 1015 10 16 0.00 0.03
6:54 am 06:54 Cloudy 59 15 57 13.9 93 93 NE 6 9 29.99 1016 10 16 0.00 0.03
7:54 am 07:54 Cloudy 61 16.1 58 14.4 90 90 ENE 7 11 29.99 1016 10 16 0.00 0.03
8:08 am 08:08 Cloudy 61 16.1 59 15 93 93 NE 8 13 30.00 1016 10 16 0.00 0.00
8:20 am 08:20 Cloudy 61 16.1 58 14.4 90 90 NE 7 11 30.00 1016 10 16 0.00 0.00
8:54 am 08:54 Cloudy with Light Rain 61 16.1 59 15 93 93 NNE 8 13 29.99 1016 10 16 0.00 0.03
9:54 am 09:54 Cloudy with Light Rain 61 16.1 59 15 93 93 NNE 9 15 30.01 1016 10 16 0.00 0.03
10:54 am 10:54 Cloudy with Light Rain 61 16.1 59 15 93 93 NNE 6 9 30.03 1017 7 11 0.01 0.25
11:54 am 11:54 Cloudy with Light Rain 63 17.2 60 15.6 90 90 ENE 7 11 30.04 1017 10 16 0.02 0.51
12:54 pm 12:54 Cloudy with Light Rain 64 17.8 60 15.6 87 87 NNE 3 6 30.05 1018 8 13 0.00 0.03
1:54 pm 13:54 Cloudy with Light Rain 65 18.3 62 16.7 90 90 ENE 6 9 30.04 1017 7 11 0.02 0.51
2:54 pm 14:54 Cloudy with Light Rain 66 18.9 63 17.2 90 90 E 7 11 30.03 1017 7 11 0.01 0.25
3:33 pm 15:33 Mostly Cloudy with Light Rain 66 18.9 63 17.2 90 90 ESE 6 9 30.03 1017 8 13 0.01 0.25
3:47 pm 15:47 Cloudy 67 19.4 63 17.2 87 87 E 6 9 30.03 1017 8 13 0.01 0.25
3:54 pm 15:54 Cloudy 66 18.9 63 17.2 90 90 ESE 5 7 30.04 1017 8 13 0.01 0.25
4:54 pm 16:54 Cloudy 67 19.4 63 17.2 87 87 NE 7 11 30.05 1018 8 13 0.00 0.03
5:14 pm 17:14 Cloudy 68 20 64 17.8 87 87 NE 3 6 30.06 1018 10 16 0.00 0.00
5:54 pm 17:54 Cloudy 67 19.4 63 17.2 87 87 E 6 9 30.04 1017 10 16 0.00 0.00
6:26 pm 18:26 Cloudy with Light Rain 66 18.9 64 17.8 93 93 NE 6 9 30.03 1017 10 16 0.00 0.03
6:54 pm 18:54 Cloudy 67 19.4 63 17.2 87 87 VRB 6 9 30.05 1018 10 16 0.00 0.03
7:54 pm 19:54 Cloudy 67 19.4 63 17.2 87 87 NE 3 6 30.06 1018 10 16 0.00 0.00
8:20 pm 20:20 Cloudy 67 19.4 63 17.2 87 87 Calm 30.06 1018 10 16 0.00 0.00
8:54 pm 20:54 Cloudy 67 19.4 63 17.2 87 87 ENE 5 7 30.07 1018 10 16 0.00 0.00
9:28 pm 21:28 Cloudy 65 18.3 64 17.8 97 97 Calm 30.09 1019 10 16 0.00 0.00
9:54 pm 21:54 Cloudy 66 18.9 63 17.2 90 90 ENE 3 6 30.08 1019 10 16 0.00 0.00
10:54 pm 22:54 Cloudy 65 18.3 63 17.2 93 93 ESE 3 6 30.09 1019 10 16 0.00 0.00
11:54 pm 23:54 Cloudy 65 18.3 64 17.8 97 97 ESE 3 6 30.09 1019 10 16 0.00 0.00

Powered by AerisWeather